Location: Unspecified
(0.0000°N, 0.0000°E)
Time: 07:18:08
(UTC+00:00)

Tiangong 1 - Pass Details

Date: 16 January 2017
Orbit: 329 x 352 km, 42.8° (Epoch: 27 April)

Event Time Altitude Azimuth Distance (km) Brightness Sun altitude
Rises 19:46:56 0° 252° (WSW) 2,197 6.4 -22.6°
Reaches altitude 10° 19:49:37 10° 277° (W) 1,331 4.6 -23.2°
Enters shadow 19:51:05 15° 307° (NW) 1,088 3.7 -23.5°
